Nucla Hopkins Field Airport, CO

11:14 PM MDT on September 21, 2017 (GMT -0600)
Nucla Hopkins Field Airport

Weather History for KAIB - June, 2014

Change the Weather History Date:

Tuesday, June 24, 2014

  Actual Average (KTEX) Record (KTEX)
Temperature  
Mean Temperature 71 °F -  
Max Temperature 91 °F 70 °F 82 °F (2012)
Min Temperature 51 °F 44 °F 42 °F (2004)
Cooling Degree Days 6    
Growing Degree Days 21 (Base 50)    
Moisture  
Dew Point 19 °F    
Average Humidity 16    
Maximum Humidity 30    
Minimum Humidity 6    
Precipitation  
Precipitation 0.00 in - - ()
Sea Level Pressure  
Sea Level Pressure 30.12 in    
Wind  
Wind Speed 7 mph (SSE)    
Max Wind Speed 15 mph    
Max Gust Speed 26 mph    
Visibility 10 miles    
Events      
Averages and records for this station are not official NWS values.
T = Trace of Precipitation, MM = Missing Value Source: NWS Daily Summary

Daily Weather History Graph

Daily Weather History Graph

Search for Another Location

Airport or City:

Trip Planner

Search our weather history database for the weather conditions in past years. The results will help you decide how hot, cold, wet, or windy it might be!

Date:

Astronomy

Jun. 24, 2014 Rise Set
Actual Time 5:51 AM MDT 8:41 PM MDT
Civil Twilight 5:20 AM MDT 9:13 PM MDT
Nautical Twilight 4:40 AM MDT 9:52 PM MDT
Astronomical Twilight 3:55 AM MDT 10:38 PM MDT
Moon 3:59 AM MDT (6/24) 6:24 PM MDT (6/24)
Length of Visible Light 15h 52m
Length of Day
14h 49m
Waning Crescent, 6% of the Moon is Illuminated
Jun 24
Waning Crescent
Jun 27
New
Jul 5
First Quarter
Jul 12
Full
Jul 18
Last Quarter

Hourly Weather History & Observations

Time (MDT) Temp. Dew Point Humidity Pressure Visibility Wind Dir Wind Speed Gust Speed Precip Events Conditions
12:15 AM 62.6 °F 21.2 °F 20% 30.13 in 10.0 mi SE 8.1 mph - N/A   Clear
12:35 AM 62.6 °F 21.2 °F 20% 30.13 in 10.0 mi East 9.2 mph - N/A   Clear
12:55 AM 60.8 °F 21.2 °F 22% 30.13 in 10.0 mi East 5.8 mph - N/A   Clear
1:15 AM 60.8 °F 21.2 °F 22% 30.13 in 10.0 mi East 8.1 mph - N/A   Clear
1:35 AM 60.8 °F 21.2 °F 22% 30.14 in 10.0 mi East 10.4 mph - N/A   Clear
1:55 AM 60.8 °F 23.0 °F 23% 30.14 in 10.0 mi East 9.2 mph - N/A   Clear
2:15 AM 60.8 °F 23.0 °F 23% 30.14 in 10.0 mi SE 8.1 mph - N/A   Clear
2:35 AM 59.0 °F 21.2 °F 23% 30.14 in 10.0 mi ESE 10.4 mph - N/A   Clear
2:55 AM 59.0 °F 23.0 °F 25% 30.14 in 10.0 mi ESE 10.4 mph - N/A   Clear
3:15 AM 55.4 °F 23.0 °F 29% 30.14 in 10.0 mi ESE 8.1 mph - N/A   Clear
3:35 AM 57.2 °F 21.2 °F 25% 30.14 in 10.0 mi SE 6.9 mph - N/A   Clear
3:55 AM 53.6 °F 23.0 °F 30% 30.14 in 10.0 mi ESE 11.5 mph - N/A   Clear
4:15 AM 53.6 °F 23.0 °F 30% 30.14 in 10.0 mi ESE 9.2 mph - N/A   Clear
4:35 AM 53.6 °F 23.0 °F 30% 30.15 in 10.0 mi SE 3.5 mph - N/A   Clear
4:55 AM 51.8 °F 21.2 °F 30% 30.15 in 10.0 mi ESE 5.8 mph - N/A   Clear
5:15 AM 51.8 °F 21.2 °F 30% 30.16 in 10.0 mi East 5.8 mph - N/A   Clear
5:35 AM 51.8 °F 21.2 °F 30% 30.15 in 10.0 mi ESE 6.9 mph - N/A   Clear
5:55 AM 51.8 °F 21.2 °F 30% 30.16 in 10.0 mi SE 6.9 mph - N/A   Clear
6:15 AM 53.6 °F 21.2 °F 28% 30.16 in 10.0 mi East 8.1 mph - N/A   Clear
6:35 AM 53.6 °F 21.2 °F 28% 30.17 in 10.0 mi ESE 11.5 mph - N/A   Clear
6:55 AM 55.4 °F 21.2 °F 26% 30.17 in 10.0 mi SE 5.8 mph 10.4 mph N/A   Clear
7:15 AM 59.0 °F 23.0 °F 25% 30.18 in 10.0 mi East 9.2 mph - N/A   Clear
7:35 AM 60.8 °F 23.0 °F 23% 30.19 in 10.0 mi East 5.8 mph - N/A   Clear
8:15 AM 62.6 °F 24.8 °F 24% 30.19 in 10.0 mi SE 3.5 mph - N/A   Clear
8:35 AM 64.4 °F 28.4 °F 26% 30.19 in 10.0 mi Calm Calm - N/A   Clear
8:55 AM 66.2 °F 26.6 °F 23% 30.20 in 10.0 mi South 3.5 mph - N/A   Clear
9:15 AM 68.0 °F 23.0 °F 18% 30.20 in 10.0 mi Calm Calm - N/A   Clear
9:35 AM 71.6 °F 23.0 °F 16% 30.20 in 10.0 mi Calm Calm - N/A   Clear
9:55 AM 73.4 °F 23.0 °F 15% 30.20 in 10.0 mi Calm Calm - N/A   Clear
10:15 AM 75.2 °F 21.2 °F 13% 30.19 in 10.0 mi Calm Calm - N/A   Clear
10:35 AM 77.0 °F 21.2 °F 12% 30.19 in 10.0 mi Calm Calm - N/A   Clear
10:55 AM 78.8 °F 21.2 °F 12% 30.18 in 10.0 mi WNW 4.6 mph - N/A   Clear
11:15 AM 80.6 °F 23.0 °F 12% 30.18 in 10.0 mi NW 3.5 mph - N/A   Clear
11:35 AM 80.6 °F 21.2 °F 11% 30.17 in 10.0 mi North 5.8 mph - N/A   Clear
11:55 AM 82.4 °F 23.0 °F 11% 30.17 in 10.0 mi North 6.9 mph - N/A   Clear
12:15 PM 82.4 °F 23.0 °F 11% 30.17 in 10.0 mi Calm Calm - N/A   Clear
12:35 PM 86.0 °F 21.2 °F 9% 30.16 in 10.0 mi NW 4.6 mph - N/A   Clear
12:55 PM 86.0 °F 21.2 °F 9% 30.15 in 10.0 mi NNW 6.9 mph - N/A   Clear
1:15 PM 87.8 °F 21.2 °F 9% 30.14 in 10.0 mi North 9.2 mph - N/A   Clear
1:35 PM 87.8 °F 19.4 °F 8% 30.13 in 10.0 mi North 6.9 mph - N/A   Clear
1:55 PM 87.8 °F 17.6 °F 8% 30.13 in 10.0 mi Calm Calm - N/A   Clear
2:15 PM 86.0 °F 17.6 °F 8% 30.12 in 10.0 mi Calm Calm - N/A   Clear
2:35 PM 89.6 °F 15.8 °F 7% 30.11 in 10.0 mi SW 5.8 mph - N/A   Clear
2:55 PM 87.8 °F 14.0 °F 6% 30.11 in 10.0 mi SSE 11.5 mph 19.6 mph N/A   Clear
3:15 PM 89.6 °F 15.8 °F 7% 30.10 in 10.0 mi SW 11.5 mph 18.4 mph N/A   Clear
3:35 PM 89.6 °F 14.0 °F 6% 30.10 in 10.0 mi West 5.8 mph 17.3 mph N/A   Clear
3:55 PM 89.6 °F 14.0 °F 6% 30.09 in 10.0 mi WNW 4.6 mph - N/A   Clear
4:15 PM 89.6 °F 14.0 °F 6% 30.08 in 10.0 mi WSW 8.1 mph - N/A   Clear
4:35 PM 87.8 °F 15.8 °F 7% 30.08 in 10.0 mi SW 12.7 mph 21.9 mph N/A   Clear
4:55 PM 91.4 °F 15.8 °F 6% 30.07 in 10.0 mi West 10.4 mph 26.5 mph N/A   Clear
5:15 PM 89.6 °F 14.0 °F 6% 30.07 in 10.0 mi SSW 9.2 mph 17.3 mph N/A   Clear
5:35 PM 89.6 °F 15.8 °F 7% 30.06 in 10.0 mi West 13.8 mph 21.9 mph N/A   Clear
5:55 PM 89.6 °F 14.0 °F 6% 30.05 in 10.0 mi WSW 13.8 mph 20.7 mph N/A   Clear
6:15 PM 87.8 °F 14.0 °F 6% 30.05 in 10.0 mi South 6.9 mph - N/A   Clear
6:35 PM 89.6 °F 15.8 °F 7% 30.05 in 10.0 mi SW 15.0 mph 20.7 mph N/A   Clear
6:55 PM 87.8 °F 15.8 °F 7% 30.05 in 10.0 mi SW 10.4 mph - N/A   Clear
7:15 PM 86.0 °F 15.8 °F 7% 30.05 in 10.0 mi WSW 12.7 mph - N/A   Clear
7:35 PM 86.0 °F 15.8 °F 7% 30.05 in 10.0 mi SW 10.4 mph 17.3 mph N/A   Clear
7:55 PM 84.2 °F 14.0 °F 7% 30.05 in 10.0 mi SW 9.2 mph 17.3 mph N/A   Clear
8:35 PM 82.4 °F 14.0 °F 8% 30.05 in 10.0 mi SW 13.8 mph - N/A   Clear
8:55 PM 80.6 °F 14.0 °F 8% 30.06 in 10.0 mi SSW 6.9 mph - N/A   Clear
9:15 PM 78.8 °F 14.0 °F 9% 30.06 in 10.0 mi SSW 5.8 mph - N/A   Clear
9:35 PM 77.0 °F 14.0 °F 9% 30.07 in 10.0 mi South 5.8 mph - N/A   Clear
9:55 PM 75.2 °F 14.0 °F 10% 30.07 in 10.0 mi South 3.5 mph - N/A   Clear
10:15 PM 69.8 °F 15.8 °F 13% 30.08 in 10.0 mi East 8.1 mph - N/A   Clear
10:35 PM 69.8 °F 15.8 °F 13% 30.09 in 10.0 mi ENE 9.2 mph - N/A   Clear
10:55 PM 68.0 °F 17.6 °F 15% 30.08 in 10.0 mi East 10.4 mph - N/A   Clear
11:15 PM 68.0 °F 17.6 °F 15% 30.09 in 10.0 mi East 10.4 mph - N/A   Clear
11:35 PM 68.0 °F 19.4 °F 16% 30.09 in 10.0 mi East 10.4 mph - N/A   Clear
11:55 PM 68.0 °F 19.4 °F 16% 30.09 in 10.0 mi East 9.2 mph - N/A   Clear